sat.trackr.live / text

‹ back to catalog

STARLINK-34164

NORAD 64177 · 2025-113H

PAYLOAD ACTIVE UNKNOWN

§ Identity

Operator
Country
US
Launch date
2025-05-28
Launch site
AFETR
Launch vehicle
Mass (kg)
RCS (m²)

Purposes: comms

External: N2YO · Heavens-Above · Gunter

§ Orbital elements

Epoch: 2026-09-20T23:22:33.471264Z

Period
93.85 min
Inclination
53.1567°
Eccentricity
0.0001894
Mean motion
15.34417756 rev/d
Perigee alt
461.4 km
Apogee alt
463.9 km
Semi-major
6,840.8 km
B*
4.1802e-4
RAAN
263.3773°
Arg perigee
72.6577°
Mean anomaly
287.4633°
Rev number
7,497

§ Raw data

STARLINK-341641 64177U 25113H   26263.97399851  .00013781  00000+0  41802-3 0  99942 64177  53.1567 263.3773 0001894  72.6577 287.4633 15.34417756 74974

JSON: /api/v1/satellites/64177 · /tle

For live sub-satellite position, see the globe view (requires WebGL).

§ Visibility from observer

Set your observer location to see the next 7 days of passes ≥ 10°. The values pass through the URL so the page stays shareable.

No JS? Fill the form by hand. The geolocation button needs JavaScript.